Simultaneous Nadir Overpasses (SNOs) Predictions

Prediction of SNOs over PacNW region [( 10.00, 139.50) to ( 22.70, 165.60)] between AQUA and NPP Satellites:

Table of predicted SNOs over PacNW region for the next 30.0 days since TLE Epoch: 1/7/2023
Index Date (AQUA) Time (AQUA) AQUA Lat,Lon Date (NPP) Time (NPP) NPP Lat,Lon Distance(km) Time Diff (sec)
1 01/07/2023 14:57:59 22.63, 164.86 01/07/2023 14:59:36 23.60, 160.54 455.11 97
2 01/10/2023 03:18:41 22.65, 152.79 01/10/2023 03:15:47 21.90, 149.13 385.69 174
3 01/18/2023 04:02:25 15.26, 143.12 01/18/2023 04:04:28 14.18, 138.29 532.61 123
4 01/20/2023 16:02:55 11.99, 147.03 01/20/2023 15:59:58 12.68, 143.62 378.84 177
5 01/28/2023 15:07:09 21.09, 162.47 01/28/2023 15:06:43 21.84, 158.50 420.06 26
